RH
49 49 51 53 55 56 57 58 59 60 60 58 55 51 46 43 41 41 42 43 45 46 46 46 46 46 46 46 46 46 44 38 34 31 30 29 29 29 29 30 30 27 21 16 15 16 19 23 26 28 28 29 29 30 30 30 31 32 32 32 33 32 31 30 30 30 30 29 27 25 23 22 22 23 25 28 30 31 32 33 33 34 33 32 31 31 32 34 35 35 36 36 38 38 39 39 38 38 38 39 39 39 40
47 47 49 51 53 55 56 57 59 60 59 58 55 52 48 45 43 43 43 43 44 45 45 45 45 45 46 46 45 44 41 37 33 31 30 29 29 29 29 30 29 25 19 16 15 17 21 25 27 29 29 30 31 32 33 32 33 33 33 32 33 33 31 30 31 31 31 30 28 25 23 21 21 21 23 27 29 30 32 32 31 30 30 28 29 31 35 37 38 38 38 39 39 40 40 40 39 38 39 39 39 39 40
44 46 48 50 52 54 55 57 58 59 59 57 55 53 49 47 45 44 43 43 43 44 44 45 45 45 44 44 44 42 38 35 33 31 30 29 29 29 29 29 28 24 18 15 15 18 22 25 28 29 29 31 33 34 34 34 34 34 34 34 34 33 30 30 31 31 30 28 26 23 21 19 18 17 19 21 24 26 27 26 25 25 25 29 32 36 39 40 41 41 41 41 41 41 41 40 39 38 38 38 38 38 38
42 44 46 49 52 53 55 56 57 58 58 57 55 53 51 49 46 45 44 43 43 43 44 44 44 43 43 42 42 40 37 35 33 32 30 30 29 29 29 29 26 22 18 16 16 18 22 26 28 29 30 32 33 34 34 34 34 34 34 34 34 32 29 29 29 29 28 25 23 21 19 17 15 15 15 17 19 20 21 21 23 25 30 35 38 40 41 42 42 42 42 42 42 41 40 39 38 38 37 36 36 37 38
40 43 46 48 50 52 54 54 55 56 56 55 54 53 52 50 48 46 44 43 43 43 43 43 42 42 42 41 40 39 37 35 34 32 31 30 30 29 29 28 25 22 18 17 17 18 22 26 28 30 31 33 33 34 34 33 33 33 33 34 33 31 28 29 29 27 25 23 21 18 16 15 14 14 14 16 17 19 20 24 28 33 37 38 40 41 42 43 43 43 42 42 41 39 38 37 36 36 36 36 37 38 39
39 42 45 48 50 51 53 53 53 53 54 53 53 53 53 51 49 47 45 44 43 43 43 42 41 41 41 41 40 39 38 36 34 32 31 30 29 28 28 27 24 21 19 18 18 20 25 27 29 30 32 33 33 33 32 33 34 34 34 33 32 30 28 29 28 25 23 21 19 17 16 16 16 15 15 17 19 22 26 30 34 36 38 40 41 42 43 42 42 41 41 40 38 36 34 34 34 34 36 38 38 39 40
39 42 44 47 49 51 51 51 51 51 52 52 53 53 53 52 50 47 45 44 44 43 43 41 41 41 41 40 40 39 38 36 34 32 31 29 27 27 27 25 23 21 19 19 20 22 27 28 30 31 32 33 33 33 32 33 34 34 34 32 30 29 28 27 26 24 22 20 21 22 23 23 23 22 21 23 27 30 31 34 36 38 39 41 41 42 43 43 42 41 39 37 34 32 31 32 34 36 38 39 39 39 39
39 42 44 47 48 50 50 49 49 49 50 51 52 53 53 52 50 48 46 45 44 43 42 41 41 40 40 40 40 39 37 35 33 31 29 27 26 25 24 22 21 21 20 19 20 23 27 29 30 31 32 33 33 33 34 34 33 34 34 32 30 29 30 28 26 24 25 28 29 29 28 26 24 24 24 27 29 30 31 35 37 39 40 41 42 43 43 43 41 38 36 33 32 31 31 32 34 35 38 39 38 37 38
39 42 44 46 48 49 48 47 48 48 50 51 51 52 52 51 50 49 47 46 45 43 42 41 40 39 39 39 39 38 36 33 31 28 26 25 24 23 22 21 21 21 21 20 20 23 26 28 29 31 31 32 33 33 34 34 33 31 31 31 31 30 28 25 23 24 29 30 30 28 25 23 22 22 24 27 30 33 35 38 39 40 40 41 42 42 43 42 41 39 36 34 33 32 32 33 33 33 34 35 35 35 36
40 42 44 46 47 48 47 47 47 48 49 50 51 52 52 51 50 49 48 46 44 43 41 40 39 39 39 39 37 35 32 29 27 25 23 23 22 21 20 20 21 22 21 21 21 22 25 28 29 30 32 33 33 34 34 34 34 34 35 35 33 30 26 22 22 25 31 30 27 25 24 23 24 25 28 30 33 36 39 40 40 40 40 41 41 41 41 40 39 38 37 35 34 33 32 32 31 30 29 31 32 33 34
40 42 44 46 47 48 47 47 47 48 49 50 50 51 51 51 50 49 48 46 44 42 41 40 40 39 39 37 34 31 28 26 24 22 21 20 20 19 19 20 22 22 22 21 21 22 24 28 29 30 32 33 33 34 34 35 36 37 36 35 32 28 23 21 22 26 28 27 26 26 27 28 29 30 32 35 37 39 40 41 40 40 39 39 40 39 39 38 38 37 36 34 33 31 31 30 29 28 27 29 30 31 30
40 42 44 46 47 48 47 47 47 48 49 49 50 50 50 50 49 48 46 45 43 42 41 41 40 38 37 34 31 27 24 23 21 19 18 18 18 18 19 21 22 22 22 21 21 22 24 28 30 30 31 32 32 32 33 35 37 37 35 33 31 27 22 21 23 26 27 28 29 31 32 32 33 34 36 38 40 40 40 40 39 38 37 37 37 36 36 35 35 34 33 31 30 28 28 28 28 27 27 28 29 29 28
40 42 44 46 48 48 47 47 47 48 48 49 49 49 49 49 48 47 46 44 43 42 42 42 40 37 33 31 28 25 22 21 18 17 15 16 17 18 20 22 22 22 22 22 22 23 26 28 30 30 30 29 28 28 31 35 36 37 35 32 28 24 20 23 25 27 28 30 32 33 34 35 36 37 38 39 39 39 38 38 36 34 33 34 33 32 32 31 29 28 27 26 26 25 26 27 28 28 28 28 28 27 26
41 42 44 46 48 48 47 47 47 47 48 48 48 48 48 47 47 46 45 44 44 43 44 42 38 34 30 29 26 23 20 18 16 15 14 16 17 19 21 22 22 23 22 23 25 26 28 28 28 28 27 25 25 27 30 33 33 33 31 27 24 22 23 26 28 30 31 33 34 35 36 36 37 38 39 39 39 38 38 37 35 32 30 29 28 26 25 25 24 23 23 23 24 25 26 27 28 28 28 27 26 25 25
41 43 44 46 47 48 47 47 47 47 47 47 47 46 46 46 46 46 45 45 44 44 43 40 36 31 28 26 23 21 19 16 15 14 15 16 18 20 22 23 23 23 25 27 29 29 28 26 26 26 26 26 28 31 33 32 29 26 25 24 24 25 27 29 31 32 34 34 35 36 36 37 37 38 38 38 38 38 37 35 32 29 26 24 23 22 22 22 22 22 22 24 25 26 28 28 28 27 26 26 25 25 26
41 42 44 46 47 48 47 47 47 47 46 46 46 45 46 46 46 46 46 45 45 43 42 38 33 29 26 23 21 19 18 15 15 14 16 17 19 21 23 23 24 25 28 31 33 32 31 29 28 29 31 32 34 35 35 31 27 25 25 27 28 29 30 31 32 33 34 35 36 36 36 37 37 38 37 37 37 36 35 32 29 26 23 22 23 24 24 24 24 24 24 25 26 27 28 28 27 26 25 26 26 27 28
41 42 44 46 47 47 47 47 46 46 46 45 45 45 45 46 46 46 46 45 44 43 40 36 31 27 23 21 19 18 18 16 17 17 17 19 20 22 23 23 25 27 30 32 33 33 32 32 32 33 34 36 37 37 34 30 29 30 31 32 32 33 33 33 34 35 35 35 36 36 36 37 37 37 37 36 35 34 32 30 27 26 25 27 28 30 30 28 27 26 25 26 27 27 27 26 25 25 26 28 30 31 31
41 42 43 46 47 47 47 47 46 46 45 45 45 45 45 46 46 46 45 44 43 42 39 34 29 24 20 19 19 20 20 19 20 21 19 20 21 22 23 24 26 28 30 32 32 33 33 33 34 35 37 38 38 37 34 34 34 35 35 36 36 35 34 34 35 36 36 35 35 36 36 36 36 36 35 34 34 33 33 31 30 31 32 33 34 35 34 32 29 27 25 25 26 26 25 25 26 28 31 32 33 34 33
41 42 44 46 47 47 47 46 46 45 45 45 45 45 45 46 46 45 44 44 43 41 38 33 27 21 18 18 20 21 22 22 22 23 23 22 22 23 24 26 28 29 30 31 32 33 33 34 35 37 38 39 37 36 36 37 38 39 39 39 38 37 36 35 35 35 35 35 35 35 36 35 35 35 34 33 34 35 36 35 36 36 37 37 37 36 36 32 29 25 23 23 23 24 24 27 30 33 35 36 36 35 34
42 43 45 46 47 47 46 45 45 45 45 45 45 45 46 46 45 44 43 43 42 40 36 30 24 20 18 19 21 21 22 23 24 24 24 23 23 24 27 28 29 30 31 31 32 33 33 34 35 36 38 38 37 37 38 39 41 41 41 40 39 38 37 36 36 35 35 34 34 33 34 34 33 32 33 34 36 38 40 39 39 38 38 37 36 35 34 30 26 22 20 22 22 24 26 30 34 37 38 37 36 35 35
43 44 45 46 47 47 46 45 45 45 46 45 45 46 47 45 44 43 42 42 41 38 33 27 23 21 21 21 20 19 19 22 24 24 25 25 24 24 27 29 30 30 31 32 33 33 32 33 36 38 39 38 38 38 38 40 42 42 42 40 40 39 38 38 37 36 33 30 29 30 32 31 31 32 34 36 39 41 41 40 39 38 37 36 35 33 30 26 22 20 20 22 25 27 30 34 37 39 38 37 36 35 34
43 44 45 46 46 46 46 46 46 46 46 46 46 47 48 46 45 44 43 43 40 36 31 27 24 24 23 19 17 16 16 18 21 24 26 25 24 24 26 28 28 29 30 32 33 33 33 35 38 40 41 41 40 40 40 42 42 42 43 41 40 40 40 39 37 33 29 28 28 30 32 32 33 34 36 38 40 41 41 39 38 37 36 35 34 31 27 23 21 21 23 26 29 31 34 37 40 40 39 37 36 34 33
43 43 44 44 45 45 46 46 46 47 48 46 47 47 48 48 47 47 46 44 41 36 31 27 26 24 21 18 16 15 15 16 19 21 23 23 23 24 25 26 27 28 29 33 34 34 36 37 40 42 42 43 42 42 42 43 42 42 42 41 40 39 39 36 32 29 28 32 34 34 34 34 35 36 37 39 40 40 39 38 37 36 35 35 32 29 25 22 22 24 28 31 33 35 36 38 40 40 39 37 36 35 34
42 42 42 43 44 45 46 47 48 48 49 47 47 48 48 50 50 49 48 45 40 35 29 27 25 22 19 17 15 15 16 16 17 19 21 22 23 24 25 26 27 29 31 34 35 36 38 40 42 42 43 43 43 43 43 43 42 41 41 40 39 38 35 32 31 32 35 38 38 37 35 36 36 37 38 39 40 40 39 37 36 36 36 34 32 28 24 23 25 28 32 35 36 36 37 38 38 38 38 37 36 35 34
42 41 41 42 43 45 47 48 49 50 50 48 48 49 50 51 51 50 48 44 38 33 29 25 22 20 18 16 15 15 16 17 18 19 20 22 23 25 25 26 28 31 33 35 36 38 41 42 43 43 44 44 44 43 43 42 41 40 40 39 38 36 32 33 35 39 42 41 39 37 37 36 37 37 39 39 40 39 38 36 36 35 36 34 31 28 25 26 28 31 34 36 37 37 37 37 37 37 36 36 35 35 34
42 40 40 42 43 45 47 49 50 51 50 49 49 50 51 51 50 48 46 41 35 30 26 22 20 18 17 16 15 15 16 17 18 19 20 22 24 25 26 27 29 31 34 36 37 39 42 43 43 44 44 44 44 43 42 41 40 40 39 39 38 35 33 36 38 40 41 40 39 39 38 37 38 38 39 40 39 38 37 36 35 35 35 33 30 28 27 29 31 34 35 36 37 37 38 37 36 36 35 35 35 34 34
41 40 39 41 43 45 47 49 50 51 50 50 49 50 50 49 48 46 43 37 31 26 23 21 19 18 16 15 15 15 16 17 18 19 20 23 25 26 27 28 29 31 34 36 38 41 42 43 43 44 44 44 43 43 42 41 40 40 40 39 37 35 35 38 39 40 41 41 40 39 38 38 39 39 40 39 38 37 36 35 35 35 33 31 30 29 29 31 32 34 35 36 37 38 38 37 36 35 34 34 34 34 33
41 39 39 41 43 45 47 48 50 50 49 49 49 49 48 48 47 45 41 34 29 24 22 21 20 18 16 16 15 16 17 17 18 19 21 23 25 26 28 30 31 32 34 35 38 40 42 43 43 43 44 43 43 42 41 40 39 39 40 38 37 37 39 39 40 41 41 41 40 40 39 39 39 39 38 37 36 35 34 34 34 32 31 30 30 30 31 32 34 35 37 37 37 37 37 36 35 35 34 33 33 33 33
41 39 39 41 43 45 47 48 48 48 48 48 48 48 47 48 47 45 40 33 27 24 22 21 20 18 16 16 16 17 18 18 19 20 21 23 25 27 29 31 31 32 33 36 38 41 42 42 42 43 43 43 42 41 41 40 39 39 38 36 37 38 40 40 40 41 41 40 40 40 39 38 36 35 34 33 33 32 33 32 31 30 30 31 32 33 34 34 35 36 37 37 37 36 35 35 34 34 33 32 32 32 31
42 39 39 40 42 45 46 47 47 47 47 47 47 47 47 48 47 44 39 32 26 24 23 21 20 18 17 17 17 17 18 18 19 20 21 23 26 29 30 32 32 32 35 36 38 40 41 41 41 41 41 41 41 41 40 40 40 39 37 35 37 39 40 40 40 40 39 38 38 37 35 32 31 30 30 30 31 31 31 29 28 28 30 32 34 35 35 35 36 37 38 37 36 36 35 34 33 33 32 32 31 30 30
43 40 39 39 41 44 46 46 46 46 46 47 46 46 47 48 47 43 38 31 26 24 23 21 20 18 17 18 18 18 18 18 19 21 22 25 27 29 30 32 34 35 36 37 39 40 40 40 39 37 37 38 39 40 41 41 41 40 38 36 35 36 38 38 38 37 36 36 35 33 31 29 29 29 30 31 30 29 27 26 26 28 31 34 36 37 37 36 37 37 38 37 36 34 33 33 32 32 31 30 29 28 27
44 41 38 38 40 43 45 45 46 46 46 47 46 46 47 47 46 42 37 30 25 23 22 21 20 19 18 19 19 19 19 19 20 22 24 26 27 28 28 32 34 35 36 38 38 39 39 39 38 36 34 35 36 37 40 41 41 40 40 38 36 35 35 35 34 34 34 33 30 28 26 27 29 31 31 30 28 27 26 26 26 28 32 36 38 38 38 38 37 37 37 36 35 33 33 33 32 31 29 28 28 27 26
46 43 39 38 40 42 44 45 45 46 46 47 47 48 48 47 44 41 36 30 25 22 21 20 20 19 19 19 19 19 20 20 22 24 26 28 28 28 28 32 34 36 36 37 38 38 38 38 37 36 35 34 35 35 37 39 39 39 38 37 37 36 35 34 34 32 30 28 25 25 26 29 31 32 31 30 29 28 28 27 27 28 31 34 36 38 38 37 36 36 35 34 33 32 31 32 31 30 28 28 27 26 25
48 44 40 38 40 42 44 45 45 46 46 47 48 49 48 46 43 40 36 30 26 23 22 21 20 20 20 20 20 20 20 22 23 25 28 30 30 29 28 30 33 35 35 36 37 36 36 36 36 36 36 36 36 36 37 37 38 38 36 35 35 35 36 35 34 31 28 25 24 25 28 32 33 33 33 33 32 32 31 30 29 28 29 30 33 35 36 36 35 34 33 32 31 30 29 29 28 28 28 27 26 25 24
50 46 41 39 40 43 45 45 45 46 47 49 50 50 48 44 42 39 36 31 26 23 23 22 21 21 21 21 21 21 21 22 24 26 28 30 31 31 31 31 31 33 34 35 35 35 35 35 36 37 38 38 38 39 39 39 39 39 38 37 35 34 35 35 34 32 29 27 26 26 30 34 36 36 37 37 37 37 35 33 31 30 29 30 30 31 32 32 32 32 31 30 29 28 26 26 26 26 26 26 26 24 23
53 48 43 40 41 43 45 46 46 47 48 51 51 50 46 43 41 38 35 30 26 24 23 23 22 22 22 22 22 21 21 22 24 26 27 29 30 31 31 31 31 32 32 33 34 35 36 36 36 37 38 39 40 40 41 41 41 40 39 38 37 35 35 34 34 32 31 30 28 27 31 36 38 39 40 40 40 39 38 35 33 30 29 28 27 27 27 28 29 29 29 28 27 25 24 23 23 23 25 25 25 24 22
55 51 46 43 43 44 46 46 47 47 50 51 51 48 44 42 40 38 35 30 26 24 24 23 23 23 23 23 23 22 22 23 23 24 26 27 28 29 31 31 31 31 32 33 33 34 35 36 37 37 38 39 39 40 40 40 40 40 39 38 37 36 35 34 34 33 33 31 29 29 34 38 39 40 40 41 41 40 39 36 33 31 29 27 26 25 24 24 25 26 26 25 24 22 21 21 21 21 23 24 24 23 21
57 53 49 46 44 45 45 46 46 48 51 52 50 47 43 41 40 37 34 30 27 25 24 24 24 24 24 23 23 23 23 23 23 24 24 24 25 26 27 28 29 30 32 32 33 34 35 36 37 37 38 39 39 39 39 39 39 39 38 37 36 35 35 34 34 34 33 31 29 30 36 39 39 40 40 41 41 40 38 36 33 31 29 27 25 24 23 23 23 22 22 22 21 20 19 19 19 20 21 22 23 22 21
59 56 52 48 46 45 45 45 46 48 51 52 50 46 42 41 38 36 33 30 27 26 25 25 24 24 24 23 23 23 23 23 23 23 23 23 23 24 24 25 26 28 30 31 32 33 35 36 37 38 38 39 39 39 38 38 38 37 37 36 35 34 34 34 34 33 32 30 30 32 37 39 39 40 40 41 41 40 38 36 34 31 29 27 25 23 22 22 21 21 20 19 18 17 17 17 18 19 20 22 23 23 23
61 58 54 50 47 46 45 45 46 49 52 52 49 45 41 40 37 34 32 30 28 27 26 25 25 25 24 24 24 24 24 24 23 23 23 23 23 23 23 24 25 26 28 30 31 32 34 35 36 37 37 37 37 37 37 36 35 34 34 33 34 34 34 34 33 32 30 29 31 35 39 39 40 40 40 40 40 39 38 36 35 32 30 27 25 23 22 21 21 20 18 17 16 16 16 16 18 19 20 21 22 23 25
65 61 56 52 48 46 45 45 46 48 51 50 48 44 40 38 36 33 31 30 29 28 26 25 25 25 25 25 25 25 25 25 24 24 24 23 24 24 24 24 25 26 27 28 30 31 32 34 34 35 35 34 35 34 34 34 33 33 33 33 33 34 34 33 32 30 28 30 34 37 39 39 40 40 40 39 39 38 38 37 36 33 30 27 25 23 22 22 20 19 17 16 15 15 15 16 17 19 20 19 20 23 27
68 63 58 53 49 47 46 46 47 48 50 49 46 42 39 36 34 32 30 30 29 28 27 27 26 26 26 26 26 26 26 26 26 25 25 25 25 25 25 26 26 27 27 28 29 29 31 31 32 33 33 32 32 33 32 32 32 33 33 33 33 33 32 31 30 29 30 33 36 38 39 39 39 39 39 39 38 38 39 38 37 34 31 27 25 24 23 22 20 18 17 15 15 14 14 16 17 19 19 18 20 23 28
70 65 60 54 50 47 47 46 47 48 48 46 44 40 38 35 33 31 30 29 29 29 29 28 27 27 27 27 28 28 27 27 27 27 27 26 26 27 27 27 27 28 28 28 28 29 29 31 31 32 34 33 32 31 31 32 33 34 35 33 32 31 29 29 30 31 33 35 37 38 38 38 38 38 38 38 39 39 40 39 37 35 31 28 26 24 23 21 19 18 16 15 14 14 15 16 17 17 18 18 21 24 29
71 67 61 56 51 48 47 47 47 47 47 44 41 38 36 33 31 30 29 29 29 29 29 29 29 29 29 29 29 29 29 29 28 28 28 28 28 28 28 28 29 29 29 29 28 29 30 32 33 33 34 34 33 31 31 33 34 35 34 32 31 29 29 30 32 33 34 36 37 37 37 37 37 38 38 38 39 40 41 40 38 35 32 28 26 23 22 20 18 16 15 13 13 14 15 16 16 16 17 19 21 25 30
72 68 62 57 53 50 48 47 46 46 45 42 39 36 35 32 30 29 29 29 29 29 30 30 30 30 30 30 30 30 30 30 29 29 29 29 29 29 30 30 30 30 30 30 30 31 33 35 35 35 35 35 34 32 32 33 34 34 33 32 31 31 32 33 34 34 34 35 35 35 35 36 36 37 37 38 39 41 41 40 38 35 31 27 24 22 20 18 16 14 13 13 14 15 16 16 16 16 16 19 22 25 29
73 68 63 59 55 51 48 46 46 45 44 41 38 35 34 32 30 29 29 29 29 29 29 30 31 31 31 31 31 31 31 30 30 30 30 30 30 30 31 31 31 31 32 32 32 33 34 36 37 36 36 35 35 34 32 33 34 34 34 33 33 34 35 34 34 33 33 33 33 34 34 35 36 36 37 38 40 42 42 41 38 34 29 25 21 19 17 15 14 12 12 13 15 16 17 16 15 16 17 20 23 25 28
74 69 64 61 57 53 48 46 45 45 43 40 37 34 33 31 29 29 29 29 30 30 29 30 31 32 32 32 32 32 32 31 31 31 31 31 31 31 32 32 32 32 32 33 34 35 35 36 37 36 36 34 34 34 33 34 35 36 36 36 36 36 35 34 32 32 32 32 32 33 33 34 35 36 37 39 41 43 43 40 36 32 26 22 19 16 15 13 12 12 13 15 17 17 16 15 16 17 19 21 23 25 26
76 71 66 63 58 53 48 46 44 43 42 39 36 34 32 30 28 28 28 29 29 30 29 30 31 32 33 33 33 33 33 32 32 32 32 33 33 33 33 33 33 33 33 34 34 35 35 36 36 35 34 34 34 34 35 37 38 38 39 38 37 36 34 32 31 30 30 31 31 32 33 34 35 37 38 40 42 43 43 39 34 29 23 19 16 14 12 12 12 13 15 17 17 17 15 16 16 18 20 22 23 24 25
78 73 69 65 60 54 48 45 44 42 41 39 36 33 32 29 28 27 28 28 28 29 30 30 31 32 33 34 34 34 34 33 33 33 33 33 33 34 34 34 35 35 35 35 35 36 36 36 35 35 35 36 36 36 38 39 39 39 39 37 36 35 33 30 29 29 29 30 30 31 33 34 36 38 41 42 43 43 41 37 31 26 20 16 14 12 12 12 13 15 17 18 17 16 15 16 18 20 21 22 23 23 24
80 76 71 66 61 55 49 46 44 42 41 39 36 34 31 29 27 27 28 28 28 29 30 31 32 32 33 34 35 35 35 34 34 34 35 34 34 35 36 37 37 37 37 37 37 37 37 37 36 36 36 36 37 38 39 39 39 38 37 35 34 33 31 29 28 28 28 29 30 31 33 36 38 40 43 43 43 42 39 34 29 23 18 15 13 12 12 14 16 17 18 17 16 15 16 18 19 21 22 22 22 23 23
81 77 72 67 61 55 49 46 44 42 41 39 36 33 30 28 27 27 28 29 29 29 31 32 33 33 33 35 35 36 35 35 35 36 36 35 35 35 37 38 39 39 40 40 39 39 38 38 37 37 37 38 39 39 40 39 37 36 34 33 32 31 29 28 27 27 28 29 30 32 34 37 40 42 44 43 42 40 37 32 26 21 16 14 13 13 14 16 18 18 17 16 15 16 17 19 21 22 22 22 22 22 22
82 78 73 66 60 55 49 46 44 43 42 39 36 33 30 28 28 28 29 29 29 30 30 32 34 35 35 36 36 36 36 36 37 37 37 37 36 36 37 38 41 43 43 42 41 40 38 38 38 38 39 39 40 40 39 37 35 34 32 30 30 29 28 28 27 27 28 29 31 34 36 39 41 43 43 42 41 38 35 30 24 19 16 14 14 15 16 18 18 17 16 15 16 17 19 21 22 22 22 22 21 22 22
82 78 73 66 60 55 51 48 46 44 42 39 36 33 30 28 28 29 29 29 30 30 30 31 33 36 38 38 38 39 38 38 38 39 39 38 38 38 39 41 43 44 44 44 43 40 37 37 38 39 39 39 39 39 38 35 33 31 30 29 28 28 28 27 28 28 29 31 33 35 38 40 42 42 42 40 39 36 32 27 23 19 17 16 16 17 18 18 17 16 15 16 17 19 21 22 23 22 22 22 21 21 22
81 78 72 66 60 55 52 49 47 45 44 40 37 34 31 29 29 29 30 30 30 30 31 32 33 35 38 39 40 40 40 39 39 40 40 38 38 40 42 43 43 42 40 40 41 40 39 37 37 37 38 37 37 36 35 34 32 30 28 27 27 27 28 28 29 29 30 32 35 37 39 40 41 41 40 39 36 33 29 25 22 20 19 19 19 19 18 17 15 15 15 17 19 21 22 23 23 23 22 22 22 21 21
80 77 73 66 61 56 53 50 48 46 45 42 38 35 32 30 29 29 29 29 29 30 31 33 34 36 37 38 39 40 41 40 39 40 41 39 39 39 41 41 41 40 40 39 37 36 38 36 35 35 36 35 35 35 34 32 30 28 27 26 26 27 27 28 29 30 32 34 36 38 39 39 39 39 38 36 33 29 26 24 23 22 21 20 19 18 16 15 15 16 17 19 21 22 23 23 23 22 22 22 21 21 21
79 78 73 67 62 58 54 51 48 47 46 43 40 37 33 32 30 29 28 28 28 29 31 34 35 37 37 38 39 40 41 41 40 40 41 40 39 38 38 37 38 40 40 38 36 36 38 36 35 36 35 34 34 33 32 30 28 27 26 26 26 27 28 29 31 32 34 35 36 37 38 38 37 37 35 32 30 27 26 26 25 24 21 19 17 16 15 15 16 17 19 21 22 23 23 23 22 22 22 22 21 21 20
79 78 74 69 64 60 56 52 49 47 46 44 41 38 34 32 31 30 28 28 29 30 32 34 35 37 38 38 39 40 41 42 42 41 40 39 38 36 35 36 36 37 36 36 36 37 36 34 36 38 37 34 32 31 30 28 28 27 27 28 28 29 30 31 32 33 34 35 35 36 37 36 35 34 32 30 29 29 29 28 26 23 19 17 15 14 14 16 18 20 21 22 23 23 23 23 22 22 22 22 21 20 20
80 79 75 71 66 61 56 52 50 48 47 45 41 38 34 33 31 30 29 29 30 31 32 34 35 37 39 39 39 40 40 42 42 42 40 38 37 36 35 35 34 33 34 35 36 35 34 35 36 38 37 34 32 31 29 28 28 29 30 30 31 31 32 32 33 33 33 34 35 36 35 34 33 31 30 30 31 32 31 28 24 20 16 15 14 15 16 18 20 21 23 23 23 23 23 23 22 22 22 22 21 20 19
80 79 77 73 68 63 56 53 50 48 47 45 41 38 34 32 30 29 28 29 30 31 33 34 36 37 39 40 40 41 40 40 41 41 40 39 38 37 36 36 35 35 36 37 37 37 36 35 36 37 36 34 32 31 30 31 31 31 32 32 32 33 33 33 33 33 34 35 35 35 33 31 30 30 31 33 34 33 30 25 20 16 14 14 15 16 18 20 21 22 23 23 23 23 23 22 22 22 22 21 21 20 19
81 80 78 74 69 63 57 53 51 49 47 44 40 36 33 31 29 27 27 28 30 31 33 35 36 37 38 40 41 42 40 40 39 39 39 39 39 37 37 37 37 39 41 41 40 39 38 35 34 33 33 33 33 33 33 34 34 34 34 34 34 35 35 34 34 35 35 35 34 33 31 30 30 32 34 35 33 30 25 20 17 15 14 15 16 18 20 21 22 23 23 23 23 23 22 22 22 22 21 21 20 19 19
82 80 78 74 68 62 57 54 52 49 46 42 38 35 32 29 27 26 26 28 30 32 33 35 36 38 39 41 42 42 41 40 38 37 37 38 38 38 37 38 40 42 43 42 41 40 38 36 34 33 32 33 35 36 37 37 37 37 37 38 37 37 36 36 36 36 36 35 34 33 31 32 34 35 36 33 29 24 19 16 15 14 15 16 18 19 21 22 23 23 23 23 23 22 22 22 22 21 21 20 20 19 18